Bandera, Texas, United States (78003)
Lat: 29.73N, Lon: 99.07W
Wx Zone: TXZ187
Local Info
Past Weather Observations for Yesterday

NOTE: This archive is for the closest National Weather Service station to Bandera. Information may differ from the station used for current weather conditions.

Click here for Long-term Archive

Time Weather Temperature Dewpoint Humidity Pressure Winds Precip Visibility
23:51
Clear
66°F / 19°C 61°F / 16°C 83% 29.83 in
(1010 mb)
ENE 9.2 mph
(ENE 15 kph)
- 10SM
22:51
Clear
63°F / 17°C 59°F / 15°C 88% 29.83 in
(1010 mb)
NE 8.1 mph
(NE 13 kph)
- 10SM
21:51
Clear
66°F / 19°C 63°F / 17°C 88% 29.8 in
(1009 mb)
NE 6.9 mph
(NE 11 kph)
- 10SM
20:51
Clear
73°F / 23°C 63°F / 17°C 69% 29.8 in
(1009 mb)
SE 5.8 mph
(SE 9 kph)
- 10SM
19:51
Clear
77°F / 25°C 61°F / 16°C 57% 29.77 in
(1008 mb)
SE 8.1 mph
(SE 13 kph)
- 10SM
18:51
Clear
81°F / 27°C 57°F / 14°C 45% 29.74 in
(1007 mb)
SE 8.1 mph
(SE 13 kph)
- 10SM
17:51
Clear
84°F / 29°C 52°F / 11°C 33% 29.74 in
(1007 mb)
ESE 10.4 mph
(ESE 17 kph)
- 10SM
16:51
Clear
86°F / 30°C 52°F / 11°C 31% 29.71 in
(1006 mb)
ESE 8.1 mph
(ESE 13 kph)
- 10SM
15:51
Clear
88°F / 31°C 48°F / 9°C 25% 29.71 in
(1006 mb)
NE 9.2 mph
(NE 15 kph)
- 10SM
14:51
Clear
88°F / 31°C 46°F / 8°C 24% 29.74 in
(1007 mb)
N 8.1 mph
(N 13 kph)
- 10SM
13:51
Clear
88°F / 31°C 54°F / 12°C 31% 29.74 in
(1007 mb)
ENE 8.1 mph
(ENE 13 kph)
- 10SM
12:51
Clear
84°F / 29°C 54°F / 12°C 35% 29.77 in
(1008 mb)
Variable 4.6 mph
(Variable 7 kph)
- 10SM
11:51
Partly Cloudy
82°F / 28°C 61°F / 16°C 48% 29.8 in
(1009 mb)
ENE 6.9 mph
(ENE 11 kph)
- 10SM
10:51
Partly Cloudy
79°F / 26°C 63°F / 17°C 58% 29.8 in
(1009 mb)
NE 6.9 mph
(NE 11 kph)
- 10SM
09:51
Clear
75°F / 24°C 63°F / 17°C 65% 29.77 in
(1008 mb)
NNE 10.4 mph
(NNE 17 kph)
- 10SM
08:51
Partly Cloudy
70°F / 21°C 61°F / 16°C 73% 29.77 in
(1008 mb)
NE 11.5 mph
(NE 19 kph)
- 10SM
07:51
Partly Cloudy
64°F / 18°C 61°F / 16°C 88% 29.77 in
(1008 mb)
NE 4.6 mph
(NE 7 kph)
- 10SM
06:51
Clear
61°F / 16°C 57°F / 14°C 88% 29.74 in
(1007 mb)
N 3.5 mph
(N 6 kph)
- 10SM
05:51
Partly Cloudy
57°F / 14°C 55°F / 13°C 94% 29.71 in
(1006 mb)
NW 5.8 mph
(NW 9 kph)
- 10SM
04:51
Clear
57°F / 14°C 55°F / 13°C 94% 29.68 in
(1005 mb)
ENE 3.5 mph
(ENE 6 kph)
0.00 in
(0.00 mm)
10SM
04:18
Clear
59°F / 15°C 55°F / 13°C 88% 29.68 in
(1005 mb)
ESE 4.6 mph
(ESE 7 kph)
0.00 in
(0.00 mm)
10SM
04:05
Partly Cloudy
Thunder Storms
63°F / 17°C 54°F / 12°C 73% 29.71 in
(1006 mb)
SE 3.5 mph
(SE 6 kph)
0.00 in
(0.00 mm)
10SM
03:51
Mostly Cloudy
Thunder Storms
61°F / 16°C 54°F / 12°C 77% 29.68 in
(1005 mb)
NE 11.5 mph
(NE 19 kph)
0.04 in
(1.02 mm)
9SM
03:38
Mostly Cloudy
Thunder Storms
61°F / 16°C 55°F / 13°C 83% 29.74 in
(1007 mb)
NW 19.6 mph
(NW 32 kph)
0.02 in
(0.51 mm)
9SM
03:27
Partly Cloudy
Thunder Storms
61°F / 16°C 55°F / 13°C 83% 29.68 in
(1005 mb)
N 11.5 mph
(N 19 kph)
0.00 in
(0.00 mm)
10SM
02:51
Mostly Cloudy
61°F / 16°C 57°F / 14°C 88% 29.68 in
(1005 mb)
NE 18.4 mph
(NE 30 kph)
0.09 in
(2.29 mm)
10SM
02:47
Mostly Cloudy
Thunder Storms
61°F / 16°C 57°F / 14°C 88% 29.68 in
(1005 mb)
NE 19.6 mph
(NE 32 kph)
0.09 in
(2.29 mm)
10SM
02:18
Overcast
Thunder Storms
63°F / 17°C 57°F / 14°C 83% 29.74 in
(1007 mb)
NNW 25.3 mph
(NNW 41 kph)
0.00 in
(0.00 mm)
10SM
02:09
Overcast
Thunder Storms
66°F / 19°C 59°F / 15°C 78% 29.68 in
(1005 mb)
N 32.2 mph
(N 52 kph)
0.00 in
(0.00 mm)
8SM
01:55
Overcast
Thunder Storms
73°F / 23°C 73°F / 23°C 100% 29.65 in
(1004 mb)
NW 17.3 mph
(NW 28 kph)
- 3SM
01:51
Overcast
Fog And Mist
75°F / 24°C 73°F / 23°C 94% 29.65 in
(1004 mb)
NW 8.1 mph
(NW 13 kph)
- 2 1/2SM
01:49
Overcast
Fog And Mist
75°F / 24°C 73°F / 23°C 94% 29.62 in
(1003 mb)
W 5.8 mph
(W 9 kph)
- 2 1/2SM
01:00
Overcast
72°F / 22°C 70°F / 21°C 94% 29.62 in
(1003 mb)
SE 4.6 mph
(SE 7 kph)
- 8SM
00:51
Overcast
72°F / 22°C 70°F / 21°C 94% 29.62 in
(1003 mb)
ESE 4.6 mph
(ESE 7 kph)
- 8SM
00:34
Overcast
72°F / 22°C 70°F / 21°C 94% 29.62 in
(1003 mb)
E 4.6 mph
(E 7 kph)
- 9SM
Time Weather Temperature Dewpoint Humidity Pressure Winds Precip Visibility


Weather for websites

WeatherForYou.com, LLC is not responsible for any damages or problems caused by this service. Current weather conditions are obtained from the closest station including government and personal stations which may have varying degrees of accuracy. Weather forecasts are derived from the NOAA NDFD. Like all things, this site belongs to Jesus Christ... He just trusts us to maintain it. If you have any questions or comments email webmaster@weatherforyou.com

Copyright © 2016, WeatherForYou.com LLC. All rights reserved.